Wind_Speed
35 38 39 40 36 38 38 40 46 44 41 49 52 58 54 47 47 48 46 43 42 39 32 30 28 28 30 35 37 38 42 42 42 43 43 43 41 40 41 41 42 43 41 39
39 45 38 35 36 35 37 41 47 50 43 47 53 62 54 48 44 44 41 35 32 31 25 19 25 28 28 29 34 38 40 44 44 45 45 43 41 41 41 40 40 42 42 41
44 42 36 37 37 39 47 45 50 51 44 42 48 59 44 36 23 35 28 25 25 11 11 14 7 11 18 23 30 38 40 40 41 41 42 42 42 44 43 42 42 41 43 42
37 37 35 29 31 25 40 30 34 37 37 24 19 19 23 45 28 24 15 2 3 6 22 9 18 22 26 25 27 25 31 38 33 35 37 41 44 43 39 39 38 38 40 41
36 31 27 27 31 25 33 29 30 31 33 36 19 15 22 30 33 6 1 3 22 23 20 21 33 29 32 29 28 28 28 32 34 35 38 39 43 41 38 42 40 39 41 41
31 29 30 23 21 22 24 28 30 31 32 14 26 25 12 4 10 4 21 14 15 20 28 35 28 31 27 29 34 36 35 35 34 34 36 37 38 40 42 43 41 42 42 41
20 23 33 30 29 31 28 25 7 5 3 10 13 20 30 26 33 21 18 33 41 26 26 16 25 25 28 29 36 38 36 34 27 28 33 36 39 40 41 43 42 42 42 42
27 32 25 20 20 17 20 20 12 8 5 16 30 17 29 37 37 49 38 20 15 14 17 24 28 24 24 24 27 28 30 29 26 29 34 36 38 39 41 42 42 41 42 43
20 27 22 18 20 25 21 21 28 30 34 13 31 54 53 40 8 5 12 24 41 31 29 37 33 30 48 47 36 24 24 23 27 31 33 33 34 33 33 37 40 42 43 45
18 28 24 11 18 28 27 28 15 10 2 6 20 22 38 31 36 44 31 20 18 24 28 30 39 56 49 41 36 23 24 22 23 22 25 28 26 22 26 31 37 41 43 47
29 29 35 22 20 27 26 28 25 26 26 9 11 23 55 44 41 43 49 46 48 52 51 56 52 55 45 45 40 28 31 29 28 29 29 26 24 28 33 35 35 37 43 48
31 31 31 49 52 47 38 37 37 30 18 34 37 43 65 55 56 56 53 54 52 51 49 47 43 50 49 48 45 37 36 39 38 38 37 36 33 31 35 38 41 45 47 48
32 24 24 22 26 19 27 30 32 37 39 39 25 29 49 59 54 52 49 53 51 51 54 50 47 44 43 52 52 52 51 44 52 51 48 46 45 46 40 41 41 41 45 48
37 38 40 30 35 34 24 26 29 29 17 24 28 33 37 37 45 47 50 53 55 59 56 58 56 50 50 50 56 55 54 54 51 50 51 50 48 47 47 45 48 47 44 42
42 40 42 40 41 42 35 37 43 49 49 42 50 47 44 59 62 60 60 61 69 62 60 57 54 55 51 51 51 54 54 56 54 52 50 49 46 47 50 51 50 53 51 49
27 29 35 48 53 39 35 47 53 51 56 49 41 38 33 37 43 48 52 54 58 54 51 49 48 54 59 47 45 47 52 52 52 54 53 53 48 49 49 50 55 55 56 55
41 37 31 37 48 35 32 52 46 45 42 36 36 32 36 39 41 40 41 40 44 49 50 48 45 47 49 46 48 50 47 47 47 49 54 58 58 54 52 52 53 55 56 56
48 48 36 36 34 5 42 35 26 24 24 30 26 26 25 28 28 29 32 33 37 41 46 52 55 51 47 43 41 42 42 45 47 49 47 49 54 57 58 54 55 53 54 58
34 32 20 10 20 28 33 36 37 34 26 25 25 23 27 32 37 36 38 40 41 46 51 53 52 54 55 54 56 53 46 42 40 43 48 48 46 51 56 55 51 56 54 56
16 14 25 14 8 5 14 21 28 35 31 17 21 36 41 38 41 46 43 44 47 45 44 43 44 46 46 47 47 53 56 58 55 48 42 44 46 44 47 50 51 48 46 50
20 17 22 29 20 19 22 21 25 15 19 31 42 41 39 39 39 41 43 42 43 44 45 47 47 46 48 51 50 50 50 49 51 55 58 55 48 50 44 46 48 46 44 49
19 11 14 11 10 13 19 19 21 31 42 43 42 42 39 39 43 45 46 46 46 45 46 48 51 53 53 49 51 54 54 51 51 50 49 48 47 49 52 48 43 40 44 44
28 33 29 27 34 39 43 42 38 39 46 44 42 40 41 43 46 49 51 51 51 50 50 50 52 56 56 58 60 61 58 60 57 53 51 51 49 45 46 57 53 49 38 40
38 36 39 38 46 42 40 42 38 39 36 34 38 41 44 49 50 52 52 53 54 55 55 55 59 62 65 63 64 66 68 67 66 63 57 55 53 50 47 46 49 50 50 44
40 38 41 45 46 43 41 35 34 38 39 40 41 45 47 50 51 53 55 56 59 59 59 59 63 66 69 70 72 74 75 74 73 70 66 58 55 54 52 51 50 52 54 51
46 46 43 43 41 44 43 40 42 43 46 45 44 45 46 48 51 54 56 56 59 61 63 68 71 74 77 79 81 83 81 79 77 73 65 59 57 54 53 54 52 51 53 56
Wind_Direction
265 261 259 274 282 286 283 283 284 284 292 290 290 290 292 289 285 286 289 290 290 292 293 282 280 272 265 263 264 262 256 259 262 267 269 268 271 270 264 263 258 253 253 253
264 261 276 282 278 279 279 279 279 288 294 293 295 290 290 288 289 290 292 293 294 290 299 302 282 271 270 266 262 262 261 258 262 266 268 268 268 265 261 258 252 249 248 248
268 270 278 277 276 280 280 279 285 289 298 290 294 293 296 295 283 300 302 303 295 296 353 339 335 308 287 283 276 266 262 257 266 273 269 264 260 257 256 257 252 250 246 243
272 274 275 273 275 281 280 291 295 294 295 288 291 294 280 303 302 305 308 90 19 302 323 308 300 287 282 280 280 275 265 262 262 262 265 269 267 261 259 259 253 252 247 242
263 272 273 274 284 287 286 294 288 287 288 293 290 260 300 297 301 313 81 321 311 289 293 292 301 277 276 270 261 267 267 263 265 273 272 266 263 262 260 252 246 243 238 238
271 272 273 284 290 283 284 280 280 283 279 271 270 244 314 71 113 27 304 298 286 301 288 293 283 284 279 283 270 258 264 267 266 271 270 269 265 261 259 256 248 241 235 232
279 280 289 292 290 283 271 259 293 287 195 253 287 262 246 273 292 292 297 290 297 284 292 275 295 280 296 291 270 272 273 269 263 265 265 268 266 262 257 251 245 237 233 233
283 289 279 282 286 282 277 260 208 233 246 286 292 259 271 282 283 294 296 302 282 291 286 299 294 288 302 311 283 280 280 265 269 263 265 263 263 263 258 251 243 235 232 233
281 273 276 268 269 263 264 242 263 251 265 289 275 278 285 290 286 16 340 305 298 291 283 285 284 297 310 308 300 303 275 265 256 258 260 257 258 259 255 250 243 235 233 233
261 280 290 267 249 254 254 260 253 237 235 257 273 286 267 276 293 303 306 314 290 275 281 284 287 303 304 298 308 296 273 248 251 253 252 249 248 255 258 254 249 243 239 237
262 252 268 264 244 265 260 256 251 260 246 238 259 268 276 287 290 292 297 301 296 292 289 292 280 290 301 293 295 273 259 245 229 235 238 241 250 254 255 257 260 258 251 243
277 282 266 271 277 275 263 259 254 252 260 250 253 255 278 282 291 297 294 292 293 294 298 297 294 292 289 295 289 284 267 257 250 247 251 247 239 252 248 249 250 253 256 252
279 261 266 265 278 274 253 261 256 255 261 261 262 269 280 294 291 287 287 285 287 294 293 292 289 283 284 287 290 289 288 276 267 267 270 266 268 269 263 249 246 247 252 251
260 273 262 267 267 273 280 269 260 267 272 271 267 290 289 278 276 284 288 290 294 297 295 291 288 282 285 285 286 289 288 288 282 275 271 269 272 272 269 253 247 246 246 246
261 261 265 269 267 269 277 285 280 284 284 273 285 285 290 292 292 288 288 290 295 293 291 290 287 285 286 282 278 282 285 285 282 279 271 266 270 270 269 260 252 249 244 243
262 271 278 282 278 294 292 286 284 281 284 279 278 281 272 274 278 283 285 284 283 286 287 288 288 286 289 286 279 272 277 274 275 277 278 275 276 276 271 268 262 257 251 246
283 286 289 284 290 296 296 286 288 289 285 272 274 274 270 271 272 277 281 282 283 285 289 295 298 294 291 286 281 276 268 265 267 269 274 278 281 280 274 272 267 263 258 253
280 282 271 269 287 253 280 281 279 286 285 281 276 269 269 280 283 301 304 306 305 302 297 293 293 294 298 301 295 289 282 279 272 269 266 265 269 277 274 266 267 268 264 259
267 264 252 246 241 270 276 277 278 282 289 294 294 292 301 303 293 294 310 308 310 313 310 309 309 310 305 304 305 302 298 299 300 284 271 269 269 271 272 269 262 260 262 261
262 240 234 237 243 236 274 286 293 300 290 277 313 316 314 312 311 303 315 316 314 313 311 310 306 302 302 303 302 303 304 302 298 298 295 284 271 265 264 263 265 261 258 257
266 250 237 251 256 273 276 286 285 278 290 306 310 309 309 305 307 313 312 309 309 309 310 310 307 306 304 305 305 302 300 298 296 297 296 295 293 288 271 263 259 265 264 261
265 255 250 257 259 276 281 276 279 291 305 307 306 307 303 304 306 307 307 305 305 305 305 305 304 306 308 305 302 301 300 299 296 291 287 284 282 283 283 282 269 265 261 261
257 258 266 265 266 277 283 290 293 292 297 301 297 300 302 304 304 305 306 305 304 303 302 301 301 300 300 301 302 301 300 299 297 290 286 281 276 270 271 277 284 276 273 261
270 271 266 275 280 286 297 300 296 299 297 296 297 297 299 301 305 305 303 302 300 299 299 298 299 299 298 298 297 298 299 298 296 296 287 283 276 270 264 260 269 277 276 276
276 280 277 278 287 297 299 302 302 299 299 296 294 298 299 300 303 303 302 301 301 299 297 296 298 298 298 297 296 298 297 295 293 292 290 281 278 271 263 258 257 258 266 271
276 278 274 281 295 298 299 301 299 295 298 297 295 296 297 298 301 302 302 303 303 302 299 299 298 297 296 295 294 294 294 293 291 289 285 280 276 270 266 263 256 256 258 257
Height
3118 3115 3114 3118 3121 3119 3116 3113 3106 3107 3110 3100 3094 3084 3088 3092 3090 3085 3084 3085 3085 3086 3087 3087 3086 3086 3085 3085 3086 3087 3087 3088 3086 3086 3087 3087 3088 3088 3088 3090 3092 3094 3096 3098
3111 3102 3113 3114 3114 3114 3110 3104 3097 3094 3100 3094 3084 3067 3074 3078 3077 3078 3076 3076 3076 3076 3077 3078 3077 3078 3078 3077 3076 3075 3077 3077 3078 3077 3077 3076 3078 3078 3079 3080 3079 3081 3084 3087
3102 3103 3109 3108 3105 3106 3102 3102 3094 3091 3091 3085 3074 3049 3060 3065 3065 3070 3068 3067 3067 3070 3071 3072 3071 3070 3070 3069 3067 3066 3065 3065 3068 3068 3066 3065 3064 3065 3067 3068 3070 3072 3075 3077
3092 3094 3096 3099 3098 3098 3091 3097 3091 3088 3086 3079 3077 3051 3049 3059 3057 3060 3060 3061 3064 3065 3066 3066 3067 3066 3063 3061 3060 3057 3056 3057 3057 3056 3056 3055 3055 3055 3058 3060 3062 3064 3066 3069
3087 3088 3089 3089 3092 3093 3085 3090 3087 3081 3079 3075 3070 3071 3038 3047 3052 3053 3056 3059 3062 3061 3060 3059 3060 3056 3054 3052 3050 3048 3048 3048 3048 3049 3048 3047 3046 3048 3049 3048 3052 3053 3054 3058
3081 3083 3082 3083 3083 3084 3081 3081 3083 3080 3075 3065 3062 3063 3039 3038 3046 3052 3054 3056 3057 3057 3056 3053 3050 3048 3045 3043 3042 3040 3039 3039 3039 3040 3039 3040 3039 3039 3040 3039 3041 3043 3045 3048
3075 3076 3075 3077 3075 3077 3077 3073 3079 3075 3073 3057 3054 3048 3038 3040 3042 3042 3045 3049 3051 3049 3048 3046 3043 3040 3037 3032 3030 3030 3030 3030 3030 3029 3030 3031 3031 3030 3031 3032 3033 3034 3038 3040
3070 3066 3070 3071 3071 3071 3072 3073 3070 3071 3064 3050 3052 3030 3027 3033 3034 3037 3034 3037 3043 3043 3042 3039 3036 3033 3029 3026 3022 3021 3021 3021 3022 3020 3020 3020 3020 3021 3023 3025 3024 3028 3029 3033
3065 3059 3060 3062 3063 3065 3062 3064 3065 3057 3055 3054 3037 3020 3022 3023 3027 3029 3031 3036 3038 3035 3031 3028 3029 3026 3020 3017 3016 3013 3013 3013 3012 3011 3010 3009 3010 3011 3012 3015 3016 3018 3021 3024
3058 3055 3052 3051 3054 3054 3056 3059 3057 3055 3054 3052 3031 3027 3010 3021 3027 3026 3023 3025 3025 3024 3024 3019 3014 3009 3009 3011 3010 3008 3004 3001 3003 3003 3002 3001 3001 3001 3004 3004 3007 3010 3011 3014
3054 3050 3045 3045 3042 3046 3047 3047 3049 3049 3043 3034 3031 3017 3014 3017 3018 3018 3018 3015 3014 3011 3007 3004 3006 3002 3003 3003 3002 3000 2994 2992 2988 2987 2988 2988 2989 2991 2991 2993 2996 2999 3002 3003
3051 3042 3040 3033 3034 3033 3034 3035 3038 3037 3027 3021 3015 3006 3000 3008 3011 3013 3001 2999 2995 2994 2995 2995 2992 2991 2991 2991 2990 2991 2991 2985 2982 2981 2980 2979 2979 2981 2981 2984 2986 2989 2989 2990
3040 3034 3030 3024 3026 3019 3018 3020 3023 3023 3019 3008 3005 2998 3008 3001 3004 2994 2989 2987 2985 2985 2984 2986 2985 2981 2978 2979 2978 2978 2976 2975 2973 2970 2970 2971 2970 2971 2974 2974 2974 2973 2976 2976
3030 3022 3024 3019 3021 3020 3015 3017 3017 3014 3007 2996 2993 2993 2998 2995 2990 2983 2978 2976 2974 2971 2971 2968 2970 2969 2966 2965 2964 2963 2961 2959 2957 2958 2957 2958 2957 2957 2958 2960 2961 2961 2963 2963
3021 3012 3015 3011 3009 3010 3003 3003 3001 2997 2998 2994 2988 2986 2984 2981 2980 2982 2974 2967 2962 2958 2957 2954 2952 2952 2951 2953 2952 2949 2946 2944 2942 2941 2943 2944 2945 2943 2944 2946 2946 2945 2947 2950
3008 3002 3001 2997 2998 2997 2992 2988 2984 2983 2980 2977 2979 2975 2970 2968 2967 2967 2963 2957 2953 2947 2942 2941 2941 2937 2936 2935 2935 2935 2933 2929 2927 2925 2925 2927 2928 2928 2927 2928 2929 2932 2933 2932
3000 2997 2995 2985 2986 2986 2976 2975 2975 2970 2969 2967 2964 2961 2961 2960 2958 2957 2953 2949 2945 2941 2935 2929 2929 2923 2923 2924 2922 2920 2918 2914 2913 2911 2910 2910 2910 2911 2910 2912 2914 2916 2918 2917
2990 2991 2990 2978 2983 2981 2966 2968 2966 2960 2958 2956 2955 2955 2953 2951 2951 2949 2945 2942 2938 2934 2928 2923 2917 2913 2914 2915 2910 2906 2902 2899 2898 2897 2895 2895 2895 2894 2894 2891 2894 2897 2898 2900
2979 2979 2976 2975 2969 2961 2961 2962 2960 2955 2952 2951 2949 2948 2947 2945 2942 2943 2938 2934 2930 2925 2921 2915 2910 2906 2904 2901 2895 2893 2892 2891 2887 2884 2881 2878 2874 2874 2875 2874 2873 2874 2876 2879
2970 2969 2970 2967 2961 2957 2953 2955 2953 2948 2943 2945 2942 2941 2939 2935 2931 2930 2926 2923 2919 2916 2912 2907 2902 2898 2893 2888 2883 2880 2878 2875 2872 2870 2867 2864 2862 2859 2859 2859 2860 2859 2858 2859
2963 2961 2960 2957 2954 2949 2949 2949 2946 2946 2945 2940 2938 2934 2931 2927 2924 2920 2917 2914 2910 2905 2900 2895 2890 2886 2881 2874 2869 2866 2864 2862 2857 2854 2852 2852 2852 2850 2847 2845 2843 2843 2842 2843
2957 2957 2954 2953 2952 2948 2945 2945 2944 2940 2935 2931 2928 2925 2920 2917 2913 2910 2907 2902 2898 2894 2890 2885 2878 2872 2868 2865 2860 2854 2851 2847 2841 2838 2838 2837 2835 2835 2834 2831 2830 2829 2829 2828
2951 2949 2949 2951 2941 2940 2939 2937 2934 2931 2927 2923 2920 2916 2911 2907 2904 2899 2893 2890 2884 2880 2876 2872 2866 2861 2858 2853 2846 2839 2836 2830 2825 2824 2821 2819 2818 2817 2816 2815 2816 2815 2814 2815
2937 2940 2937 2936 2926 2929 2928 2926 2923 2922 2917 2914 2910 2906 2902 2896 2892 2886 2882 2878 2873 2868 2862 2857 2851 2845 2839 2837 2831 2825 2819 2813 2807 2804 2804 2801 2798 2798 2798 2797 2799 2801 2801 2800
2929 2929 2925 2920 2918 2919 2917 2915 2914 2911 2908 2904 2900 2896 2891 2886 2882 2874 2869 2864 2858 2852 2846 2839 2832 2826 2821 2817 2811 2806 2800 2794 2788 2784 2781 2779 2778 2777 2776 2778 2780 2782 2785 2788
2918 2915 2917 2910 2912 2911 2906 2905 2902 2899 2896 2892 2889 2886 2882 2876 2870 2862 2857 2851 2843 2836 2830 2821 2814 2805 2799 2793 2788 2782 2776 2770 2765 2761 2760 2758 2756 2757 2757 2757 2760 2764 2763 2766